Find Brasilsat B2

NORAD ID: 23536 Int'l Des: 1995-016 Owner: EMBR Country: BR operational
HEOCIRCULAR

实时位置

正在加载3D地球...

关于 Brasilsat B2

正在加载描述...

即将过境

Passes for default location (London). Set your location on the main map for personalized predictions.

高度历史

Loading altitude history...

两行轨道根数

1 23536U 95016A 26130.83246814 .00000045 00000-0 00000+0 0 9996
2 23536 12.0575 31.8954 0001737 256.4337 275.9282 0.99238036113728
Epoch: May 10, 2026 • Age: 32 hours

当前状态

高度 36074.1 km
速度 3.06 km/s
星下点 -11.76°S, 31.32°E
发射日期 Mar 28, 1995
运行时间 31.1 years
类型 other

技术详情

分类 Payload
质量 1760.00 kg
干质量 800.00 kg
总质量 1760.00 kg
长度 8.40 m
直径 3.60 m
跨度 8.40 m
形状 Cyl
制造商 HSES
平台类型 HS-376W
阶段状态 Unknown Active Status
所有者/国家 EMBR/BR

Most Searched